| time (UTC) | temp F | wind direction | speed MPH | gust MPH | rain 1hr in | rain 24hr in | rain mn in | humidity % | barometer mb |
| 20260509005503 | 54 | 63 | 1.0 | 6.0 | 0.00 | 0.00 | 0.00 | 52 | 1032.1 |
| 20260509005003 | 54 | 88 | 1.0 | 6.0 | 0.00 | 0.00 | 0.00 | 51 | 1032.0 |
| 20260509004503 | 54 | 93 | 2.0 | 4.0 | 0.00 | 0.00 | 0.00 | 51 | 1032.0 |
| 20260509004003 | 55 | 84 | 2.0 | 8.0 | 0.00 | 0.00 | 0.00 | 50 | 1031.9 |
| 20260509003503 | 56 | 90 | 3.0 | 8.0 | 0.00 | 0.00 | 0.00 | 48 | 1031.9 |
| 20260509003003 | 56 | 101 | 2.0 | 6.0 | 0.00 | 0.00 | 0.00 | 48 | 1031.9 |
| 20260509002503 | 57 | 105 | 2.0 | 6.0 | 0.00 | 0.00 | 0.00 | 48 | 1031.9 |
| 20260509002221 | 57 | 100 | 3.0 | 6.0 | 0.00 | 0.00 | 0.00 | 47 | 1031.8 |
| 20260509001503 | 56 | 92 | 3.0 | 7.0 | 0.00 | 0.00 | 0.00 | 48 | 1031.7 |
| 20260509001003 | 56 | 92 | 2.0 | 4.0 | 0.00 | 0.00 | 0.00 | 49 | 1031.7 |
| 20260509000503 | 56 | 99 | 3.0 | 6.0 | 0.00 | 0.00 | 0.00 | 49 | 1031.5 |
| 20260509000003 | 56 | 98 | 2.0 | 6.0 | 0.00 | 0.00 | 0.00 | 49 | 1031.5 |
| 20260508235503 | 56 | 82 | 2.0 | 4.0 | 0.00 | 0.00 | 0.00 | 48 | 1031.5 |
| 20260508235003 | 56 | 90 | 2.0 | 6.0 | 0.00 | 0.00 | 0.00 | 48 | 1031.4 |
| 20260508234503 | 56 | 109 | 2.0 | 9.0 | 0.00 | 0.00 | 0.00 | 47 | 1031.4 |
| 20260508234219 | 56 | 112 | 3.0 | 11.0 | 0.00 | 0.00 | 0.00 | 48 | 1031.3 |
| 20260508233718 | 57 | 109 | 4.0 | 11.0 | 0.00 | 0.00 | 0.00 | 48 | 1031.1 |
| 20260508233003 | 57 | 101 | 4.0 | 8.0 | 0.00 | 0.00 | 0.00 | 45 | 1031.2 |
| 20260508232503 | 58 | 105 | 3.0 | 8.0 | 0.00 | 0.00 | 0.00 | 43 | 1031.3 |
| 20260508232217 | 59 | 107 | 3.0 | 8.0 | 0.00 | 0.00 | 0.00 | 44 | 1031.3 |
| 20260508231719 | 59 | 109 | 3.0 | 7.0 | 0.00 | 0.00 | 0.00 | 44 | 1031.0 |
| 20260508231003 | 60 | 98 | 3.0 | 9.0 | 0.00 | 0.00 | 0.00 | 43 | 1031.0 |
| 20260508230503 | 61 | 97 | 3.0 | 9.0 | 0.00 | 0.00 | 0.00 | 40 | 1031.0 |
| 20260508230218 | 61 | 97 | 3.0 | 9.0 | 0.00 | 0.00 | 0.00 | 39 | 1031.0 |
| 20260508225503 | 61 | 100 | 4.0 | 10.0 | 0.00 | 0.00 | 0.00 | 41 | 1031.1 |
| 20260508225003 | 62 | 99 | 5.0 | 13.0 | 0.00 | 0.00 | 0.00 | 39 | 1031.0 |
| 20260508224503 | 63 | 98 | 6.0 | 13.0 | 0.00 | 0.00 | 0.00 | 38 | 1030.9 |
| 20260508224003 | 63 | 100 | 5.0 | 11.0 | 0.00 | 0.00 | 0.00 | 38 | 1030.9 |
| 20260508223503 | 62 | 108 | 5.0 | 12.0 | 0.00 | 0.00 | 0.00 | 35 | 1031.0 |
| 20260508223003 | 63 | 109 | 5.0 | 12.0 | 0.00 | 0.00 | 0.00 | 35 | 1030.9 |
| 20260508222503 | 64 | 96 | 3.0 | 8.0 | 0.00 | 0.00 | 0.00 | 35 | 1031.0 |
| 20260508222003 | 63 | 93 | 4.0 | 11.0 | 0.00 | 0.00 | 0.00 | 34 | 1031.2 |
| 20260508221503 | 63 | 93 | 4.0 | 11.0 | 0.00 | 0.00 | 0.00 | 34 | 1031.0 |
| 20260508221003 | 64 | 88 | 3.0 | 10.0 | 0.00 | 0.00 | 0.00 | 33 | 1031.3 |
| 20260508220503 | 64 | 112 | 5.0 | 13.0 | 0.00 | 0.00 | 0.00 | 23 | 1031.1 |
| 20260508220219 | 64 | 124 | 5.0 | 13.0 | 0.00 | 0.00 | 0.00 | 24 | 1031.1 |
| 20260508215717 | 65 | 186 | 4.0 | 13.0 | 0.00 | 0.00 | 0.00 | 24 | 1030.9 |
| 20260508215003 | 64 | 249 | 5.0 | 12.0 | 0.00 | 0.00 | 0.00 | 25 | 1031.1 |
| 20260508214503 | 64 | 256 | 5.0 | 12.0 | 0.00 | 0.00 | 0.00 | 24 | 1031.1 |
| 20260508214003 | 64 | 247 | 5.0 | 11.0 | 0.00 | 0.00 | 0.00 | 24 | 1031.1 |
| 20260508213719 | 64 | 257 | 6.0 | 11.0 | 0.00 | 0.00 | 0.00 | 25 | 1031.3 |
| 20260508213003 | 65 | 210 | 4.0 | 11.0 | 0.00 | 0.00 | 0.00 | 25 | 1031.3 |
| 20260508212503 | 65 | 180 | 4.0 | 10.0 | 0.00 | 0.00 | 0.00 | 26 | 1031.3 |
| 20260508212003 | 64 | 203 | 5.0 | 10.0 | 0.00 | 0.00 | 0.00 | 27 | 1031.3 |
| 20260508211503 | 63 | 245 | 4.0 | 10.0 | 0.00 | 0.00 | 0.00 | 27 | 1031.4 |
| 20260508211003 | 62 | 246 | 4.0 | 10.0 | 0.00 | 0.00 | 0.00 | 27 | 1031.6 |
| 20260508210503 | 63 | 184 | 5.0 | 16.0 | 0.00 | 0.00 | 0.00 | 26 | 1031.6 |
| 20260508210003 | 63 | 191 | 5.0 | 16.0 | 0.00 | 0.00 | 0.00 | 27 | 1031.5 |
| 20260508205717 | 63 | 278 | 4.0 | 14.0 | 0.00 | 0.00 | 0.00 | 29 | 1031.6 |
| 20260508205220 | 62 | 305 | 4.0 | 13.0 | 0.00 | 0.00 | 0.00 | 27 | 1031.6 |
| 20260508204503 | 61 | 298 | 6.0 | 18.0 | 0.00 | 0.00 | 0.00 | 26 | 1031.8 |
| 20260508204222 | 62 | 294 | 6.0 | 18.0 | 0.00 | 0.00 | 0.00 | 26 | 1031.8 |
| 20260508203720 | 62 | 277 | 6.0 | 11.0 | 0.00 | 0.00 | 0.00 | 28 | 1031.8 |
| 20260508203003 | 61 | 264 | 5.0 | 13.0 | 0.00 | 0.00 | 0.00 | 28 | 1031.8 |
| 20260508202503 | 61 | 262 | 5.0 | 13.0 | 0.00 | 0.00 | 0.00 | 27 | 1031.9 |
| 20260508202003 | 61 | 263 | 7.0 | 13.0 | 0.00 | 0.00 | 0.00 | 28 | 1031.9 |
| 20260508201503 | 61 | 269 | 6.0 | 16.0 | 0.00 | 0.00 | 0.00 | 26 | 1031.9 |
| 20260508201003 | 60 | 262 | 6.0 | 16.0 | 0.00 | 0.00 | 0.00 | 26 | 1031.8 |
| 20260508200503 | 61 | 253 | 6.0 | 13.0 | 0.00 | 0.00 | 0.00 | 27 | 1032.1 |
| 20260508200003 | 61 | 259 | 6.0 | 15.0 | 0.00 | 0.00 | 0.00 | 26 | 1032.1 |
| 20260508195503 | 60 | 269 | 6.0 | 15.0 | 0.00 | 0.00 | 0.00 | 27 | 1032.2 |
| 20260508195003 | 60 | 263 | 6.0 | 15.0 | 0.00 | 0.00 | 0.00 | 27 | 1032.1 |
| 20260508194504 | 61 | 270 | 6.0 | 15.0 | 0.00 | 0.00 | 0.00 | 26 | 1032.1 |
| 20260508194003 | 61 | 291 | 4.0 | 12.0 | 0.00 | 0.00 | 0.00 | 25 | 1032.2 |
| 20260508193503 | 61 | 292 | 4.0 | 11.0 | 0.00 | 0.00 | 0.00 | 29 | 1032.0 |
| 20260508193003 | 60 | 260 | 5.0 | 11.0 | 0.00 | 0.00 | 0.00 | 30 | 1032.1 |
| 20260508192503 | 60 | 253 | 5.0 | 12.0 | 0.00 | 0.00 | 0.00 | 28 | 1032.2 |
| 20260508192003 | 59 | 263 | 5.0 | 12.0 | 0.00 | 0.00 | 0.00 | 28 | 1032.2 |
| 20260508191717 | 59 | 250 | 5.0 | 10.0 | 0.00 | 0.00 | 0.00 | 28 | 1032.3 |
| 20260508191221 | 59 | 253 | 5.0 | 10.0 | 0.00 | 0.00 | 0.00 | 29 | 1032.2 |
| 20260508190718 | 59 | 262 | 5.0 | 11.0 | 0.00 | 0.00 | 0.00 | 28 | 1032.2 |
| 20260508190003 | 59 | 296 | 6.0 | 11.0 | 0.00 | 0.00 | 0.00 | 28 | 1032.4 |
| 20260508185503 | 59 | 303 | 7.0 | 14.0 | 0.00 | 0.00 | 0.00 | 30 | 1032.3 |
| 20260508185217 | 58 | 299 | 7.0 | 14.0 | 0.00 | 0.00 | 0.00 | 29 | 1032.3 |
| 20260508184504 | 58 | 282 | 6.0 | 12.0 | 0.00 | 0.00 | 0.00 | 28 | 1032.5 |
| 20260508184003 | 58 | 290 | 5.0 | 10.0 | 0.00 | 0.00 | 0.00 | 28 | 1032.5 |
| 20260508183721 | 58 | 303 | 5.0 | 13.0 | 0.00 | 0.00 | 0.00 | 28 | 1032.6 |
| 20260508183003 | 58 | 300 | 4.0 | 13.0 | 0.00 | 0.00 | 0.00 | 28 | 1032.7 |
| 20260508182503 | 58 | 304 | 5.0 | 13.0 | 0.00 | 0.00 | 0.00 | 33 | 1032.7 |
| 20260508182004 | 57 | 291 | 6.0 | 13.0 | 0.00 | 0.00 | 0.00 | 30 | 1032.8 |
| 20260508181503 | 57 | 272 | 6.0 | 13.0 | 0.00 | 0.00 | 0.00 | 31 | 1032.9 |
| 20260508181220 | 56 | 265 | 6.0 | 13.0 | 0.00 | 0.00 | 0.00 | 30 | 1033.0 |
| 20260508180718 | 57 | 274 | 5.0 | 13.0 | 0.00 | 0.00 | 0.00 | 29 | 1033.0 |
| 20260508180003 | 56 | 286 | 4.0 | 11.0 | 0.00 | 0.00 | 0.00 | 30 | 1033.0 |
| 20260508175503 | 56 | 297 | 4.0 | 11.0 | 0.00 | 0.00 | 0.00 | 31 | 1033.2 |
| 20260508175003 | 56 | 259 | 5.0 | 18.0 | 0.00 | 0.00 | 0.00 | 31 | 1033.1 |
| 20260508174720 | 56 | 269 | 5.0 | 18.0 | 0.00 | 0.00 | 0.00 | 34 | 1033.2 |
| 20260508174003 | 55 | 286 | 6.0 | 14.0 | 0.00 | 0.00 | 0.00 | 31 | 1033.3 |
| 20260508173503 | 55 | 263 | 5.0 | 12.0 | 0.00 | 0.00 | 0.00 | 31 | 1033.3 |
| 20260508173003 | 55 | 264 | 4.0 | 10.0 | 0.00 | 0.00 | 0.00 | 32 | 1033.3 |
| 20260508172503 | 55 | 262 | 3.0 | 9.0 | 0.00 | 0.00 | 0.00 | 33 | 1033.4 |
| 20260508172003 | 54 | 285 | 4.0 | 11.0 | 0.00 | 0.00 | 0.00 | 36 | 1033.4 |
| 20260508171503 | 54 | 299 | 5.0 | 13.0 | 0.00 | 0.00 | 0.00 | 35 | 1033.4 |
| 20260508171004 | 54 | 293 | 4.0 | 13.0 | 0.00 | 0.00 | 0.00 | 36 | 1033.3 |
| 20260508170719 | 54 | 219 | 2.0 | 7.0 | 0.00 | 0.00 | 0.00 | 34 | 1033.5 |
| 20260508170003 | 53 | 261 | 5.0 | 12.0 | 0.00 | 0.00 | 0.00 | 37 | 1033.5 |
| 20260508165503 | 54 | 263 | 5.0 | 12.0 | 0.00 | 0.01 | 0.00 | 36 | 1033.4 |
| 20260508165004 | 54 | 264 | 4.0 | 11.0 | 0.00 | 0.01 | 0.00 | 38 | 1033.4 |
| 20260508164503 | 53 | 264 | 4.0 | 11.0 | 0.00 | 0.01 | 0.00 | 38 | 1033.4 |
| 20260508164003 | 53 | 282 | 4.0 | 11.0 | 0.00 | 0.01 | 0.00 | 37 | 1033.6 |
| 20260508163503 | 52 | 289 | 4.0 | 11.0 | 0.00 | 0.01 | 0.00 | 39 | 1033.6 |
| 20260508163003 | 52 | 288 | 4.0 | 13.0 | 0.00 | 0.01 | 0.00 | 37 | 1033.7 |
| 20260508162718 | 52 | 287 | 4.0 | 13.0 | 0.00 | 0.01 | 0.00 | 37 | 1033.7 |
| 20260508162003 | 52 | 253 | 4.0 | 9.0 | 0.00 | 0.02 | 0.00 | 39 | 1033.7 |
| 20260508161719 | 52 | 245 | 3.0 | 9.0 | 0.00 | 0.02 | 0.00 | 38 | 1033.7 |
| 20260508161003 | 52 | 250 | 3.0 | 8.0 | 0.00 | 0.03 | 0.00 | 38 | 1033.7 |
| 20260508160503 | 51 | 254 | 3.0 | 8.0 | 0.00 | 0.03 | 0.00 | 39 | 1033.7 |
| 20260508160003 | 51 | 249 | 3.0 | 9.0 | 0.00 | 0.03 | 0.00 | 39 | 1033.8 |
| 20260508155503 | 51 | 234 | 3.0 | 9.0 | 0.00 | 0.04 | 0.00 | 38 | 1033.7 |
| 20260508155003 | 51 | 218 | 3.0 | 8.0 | 0.00 | 0.04 | 0.00 | 39 | 1033.7 |
| 20260508154503 | 51 | 218 | 2.0 | 6.0 | 0.00 | 0.04 | 0.00 | 39 | 1033.7 |
| 20260508154003 | 51 | 261 | 2.0 | 6.0 | 0.00 | 0.04 | 0.00 | 42 | 1033.6 |
| 20260508153503 | 50 | 276 | 3.0 | 7.0 | 0.00 | 0.04 | 0.00 | 39 | 1033.6 |
| 20260508153003 | 50 | 281 | 4.0 | 8.0 | 0.00 | 0.04 | 0.00 | 40 | 1033.7 |
| 20260508152503 | 50 | 301 | 4.0 | 10.0 | 0.00 | 0.04 | 0.00 | 39 | 1033.7 |
| 20260508152003 | 50 | 303 | 3.0 | 10.0 | 0.00 | 0.04 | 0.00 | 41 | 1033.5 |
| 20260508151503 | 50 | 304 | 3.0 | 9.0 | 0.00 | 0.04 | 0.00 | 41 | 1033.6 |
| 20260508151003 | 49 | 290 | 3.0 | 9.0 | 0.00 | 0.04 | 0.00 | 40 | 1033.6 |
| 20260508150503 | 49 | 257 | 3.0 | 9.0 | 0.00 | 0.04 | 0.00 | 42 | 1033.5 |
| 20260508150004 | 49 | 189 | 2.0 | 5.0 | 0.00 | 0.04 | 0.00 | 43 | 1033.5 |
| 20260508145503 | 48 | 155 | 2.0 | 6.0 | 0.00 | 0.04 | 0.00 | 44 | 1033.5 |
| 20260508145003 | 48 | 278 | 3.0 | 9.0 | 0.00 | 0.04 | 0.00 | 43 | 1033.5 |
| 20260508144503 | 48 | 299 | 3.0 | 9.0 | 0.00 | 0.04 | 0.00 | 43 | 1033.5 |
| 20260508144003 | 48 | 16 | 2.0 | 6.0 | 0.00 | 0.04 | 0.00 | 43 | 1033.3 |
| 20260508143503 | 48 | 64 | 1.0 | 4.0 | 0.00 | 0.04 | 0.00 | 44 | 1033.3 |
| 20260508143003 | 47 | 343 | 1.0 | 2.0 | 0.00 | 0.04 | 0.00 | 44 | 1033.3 |
| 20260508142503 | 47 | 316 | 1.0 | 3.0 | 0.00 | 0.04 | 0.00 | 45 | 1033.3 |
| 20260508142003 | 47 | 321 | 1.0 | 3.0 | 0.00 | 0.04 | 0.00 | 46 | 1033.3 |
| 20260508141503 | 47 | 8 | 1.0 | 3.0 | 0.00 | 0.04 | 0.00 | 45 | 1033.3 |
| 20260508141218 | 47 | 26 | 1.0 | 3.0 | 0.00 | 0.04 | 0.00 | 45 | 1033.3 |
| 20260508140721 | 47 | 39 | 1.0 | 3.0 | 0.00 | 0.04 | 0.00 | 46 | 1033.4 |
| 20260508140003 | 47 | 344 | 1.0 | 4.0 | 0.00 | 0.04 | 0.00 | 46 | 1033.5 |
| 20260508135503 | 47 | 80 | 1.0 | 3.0 | 0.00 | 0.04 | 0.00 | 46 | 1033.3 |
| 20260508135003 | 47 | 131 | 1.0 | 6.0 | 0.00 | 0.04 | 0.00 | 47 | 1033.3 |
| 20260508134503 | 46 | 136 | 2.0 | 7.0 | 0.00 | 0.04 | 0.00 | 47 | 1033.3 |
| 20260508134003 | 46 | 216 | 2.0 | 7.0 | 0.00 | 0.04 | 0.00 | 48 | 1033.3 |
| 20260508133503 | 45 | 271 | 2.0 | 4.0 | 0.00 | 0.04 | 0.00 | 48 | 1033.3 |
| 20260508133217 | 45 | 262 | 1.0 | 4.0 | 0.00 | 0.04 | 0.00 | 48 | 1033.3 |
| 20260508132503 | 45 | 105 | 1.0 | 3.0 | 0.00 | 0.04 | 0.00 | 49 | 1033.3 |
| 20260508132003 | 45 | 66 | 1.0 | 3.0 | 0.00 | 0.04 | 0.00 | 49 | 1033.2 |
| 20260508131503 | 45 | 340 | 1.0 | 3.0 | 0.00 | 0.04 | 0.00 | 50 | 1033.1 |
| 20260508131003 | 44 | 9 | 1.0 | 3.0 | 0.00 | 0.04 | 0.00 | 51 | 1032.9 |
| 20260508130503 | 43 | 73 | 1.0 | 6.0 | 0.00 | 0.04 | 0.00 | 53 | 1032.9 |
| 20260508130003 | 42 | 29 | 1.0 | 6.0 | 0.00 | 0.04 | 0.00 | 54 | 1032.9 |
| 20260508125503 | 41 | 347 | 1.0 | 4.0 | 0.00 | 0.04 | 0.00 | 56 | 1032.9 |
| 20260508125003 | 41 | 30 | 1.0 | 4.0 | 0.00 | 0.04 | 0.00 | 59 | 1032.9 |
| 20260508124503 | 40 | 78 | 1.0 | 4.0 | 0.00 | 0.04 | 0.00 | 59 | 1032.8 |
| 20260508124222 | 40 | 74 | 1.0 | 4.0 | 0.00 | 0.04 | 0.00 | 60 | 1032.8 |
| 20260508123503 | 39 | 344 | 1.0 | 5.0 | 0.00 | 0.04 | 0.00 | 62 | 1032.7 |
| 20260508123003 | 39 | 340 | 2.0 | 5.0 | 0.00 | 0.04 | 0.00 | 64 | 1032.7 |
| 20260508122503 | 38 | 338 | 1.0 | 4.0 | 0.00 | 0.04 | 0.00 | 63 | 1032.6 |
| 20260508122003 | 38 | 332 | 1.0 | 4.0 | 0.00 | 0.04 | 0.00 | 66 | 1032.5 |
| 20260508121721 | 37 | 334 | 1.0 | 4.0 | 0.00 | 0.04 | 0.00 | 66 | 1032.5 |
| 20260508121003 | 37 | 6 | 1.0 | 4.0 | 0.00 | 0.04 | 0.00 | 67 | 1032.4 |
| 20260508120504 | 37 | 19 | 2.0 | 4.0 | 0.00 | 0.04 | 0.00 | 66 | 1032.3 |
| 20260508120220 | 37 | 13 | 1.0 | 4.0 | 0.00 | 0.04 | 0.00 | 66 | 1032.4 |
| 20260508115503 | 38 | 347 | 1.0 | 4.0 | 0.00 | 0.04 | 0.00 | 64 | 1032.2 |
| 20260508115003 | 38 | 338 | 1.0 | 4.0 | 0.00 | 0.04 | 0.00 | 64 | 1032.2 |
| 20260508114503 | 38 | 352 | 2.0 | 4.0 | 0.00 | 0.04 | 0.00 | 64 | 1032.3 |
| 20260508114217 | 38 | 7 | 1.0 | 3.0 | 0.00 | 0.04 | 0.00 | 64 | 1032.2 |
| 20260508113503 | 40 | 347 | 1.0 | 4.0 | 0.00 | 0.04 | 0.00 | 61 | 1032.2 |
| 20260508113004 | 40 | 326 | 2.0 | 4.0 | 0.00 | 0.04 | 0.00 | 60 | 1032.1 |
| 20260508112503 | 40 | 325 | 1.0 | 4.0 | 0.00 | 0.04 | 0.00 | 61 | 1032.3 |
| 20260508112003 | 40 | 337 | 1.0 | 4.0 | 0.00 | 0.04 | 0.00 | 60 | 1032.3 |
| 20260508111717 | 40 | 355 | 1.0 | 4.0 | 0.00 | 0.04 | 0.00 | 60 | 1032.3 |
| 20260508111220 | 40 | 345 | 2.0 | 4.0 | 0.00 | 0.04 | 0.00 | 61 | 1032.2 |
| 20260508110504 | 40 | 319 | 2.0 | 4.0 | 0.00 | 0.04 | 0.00 | 59 | 1032.3 |
| 20260508110003 | 40 | 320 | 2.0 | 5.0 | 0.00 | 0.04 | 0.00 | 59 | 1032.3 |
| 20260508105503 | 40 | 324 | 2.0 | 5.0 | 0.00 | 0.04 | 0.00 | 60 | 1032.2 |
| 20260508105003 | 40 | 324 | 2.0 | 5.0 | 0.00 | 0.04 | 0.00 | 60 | 1032.3 |
| 20260508104503 | 40 | 317 | 2.0 | 5.0 | 0.00 | 0.04 | 0.00 | 60 | 1032.2 |
| 20260508104003 | 40 | 309 | 1.0 | 6.0 | 0.00 | 0.04 | 0.00 | 60 | 1032.1 |
| 20260508103503 | 40 | 309 | 1.0 | 6.0 | 0.00 | 0.04 | 0.00 | 60 | 1032.1 |
| 20260508103219 | 40 | 310 | 1.0 | 4.0 | 0.00 | 0.04 | 0.00 | 60 | 1032.1 |
| 20260508102504 | 40 | 321 | 2.0 | 8.0 | 0.00 | 0.04 | 0.00 | 62 | 1032.2 |
| 20260508102003 | 39 | 326 | 2.0 | 5.0 | 0.00 | 0.04 | 0.00 | 62 | 1032.2 |
| 20260508101503 | 40 | 327 | 1.0 | 5.0 | 0.00 | 0.04 | 0.00 | 61 | 1032.3 |
| 20260508101003 | 41 | 342 | 1.0 | 5.0 | 0.00 | 0.04 | 0.00 | 59 | 1032.2 |
| 20260508100503 | 41 | 332 | 2.0 | 6.0 | 0.00 | 0.04 | 0.00 | 58 | 1032.3 |
| 20260508100003 | 41 | 322 | 3.0 | 7.0 | 0.00 | 0.04 | 0.00 | 58 | 1032.3 |
| 20260508095503 | 41 | 318 | 3.0 | 8.0 | 0.00 | 0.04 | 0.00 | 59 | 1032.3 |
| 20260508095217 | 41 | 319 | 3.0 | 8.0 | 0.00 | 0.04 | 0.00 | 60 | 1032.2 |
| 20260508094503 | 39 | 330 | 2.0 | 6.0 | 0.00 | 0.04 | 0.00 | 62 | 1032.2 |
| 20260508094003 | 39 | 346 | 2.0 | 3.0 | 0.00 | 0.04 | 0.00 | 63 | 1032.3 |
| 20260508093503 | 39 | 341 | 1.0 | 3.0 | 0.00 | 0.04 | 0.00 | 62 | 1032.4 |
| 20260508093003 | 39 | 311 | 1.0 | 4.0 | 0.00 | 0.04 | 0.00 | 61 | 1032.5 |
| 20260508092503 | 40 | 300 | 1.0 | 4.0 | 0.00 | 0.04 | 0.00 | 61 | 1032.4 |
| 20260508092220 | 40 | 273 | 0.0 | 4.0 | 0.00 | 0.04 | 0.00 | 61 | 1032.5 |
| 20260508091503 | 39 | 288 | 1.0 | 3.0 | 0.00 | 0.04 | 0.00 | 61 | 1032.5 |
| 20260508091003 | 39 | 292 | 1.0 | 4.0 | 0.00 | 0.04 | 0.00 | 61 | 1032.5 |
| 20260508090504 | 39 | 310 | 1.0 | 4.0 | 0.00 | 0.04 | 0.00 | 61 | 1032.5 |
| 20260508090003 | 39 | 322 | 2.0 | 4.0 | 0.00 | 0.04 | 0.00 | 61 | 1032.5 |
| 20260508085503 | 40 | 318 | 1.0 | 4.0 | 0.00 | 0.04 | 0.00 | 60 | 1032.5 |
| 20260508085218 | 40 | 308 | 1.0 | 3.0 | 0.00 | 0.04 | 0.00 | 58 | 1032.5 |
| 20260508084721 | 41 | 314 | 1.0 | 4.0 | 0.00 | 0.04 | 0.00 | 58 | 1032.6 |
| 20260508084003 | 41 | 320 | 1.0 | 4.0 | 0.00 | 0.04 | 0.00 | 57 | 1032.6 |
| 20260508083503 | 41 | 318 | 2.0 | 4.0 | 0.00 | 0.04 | 0.00 | 56 | 1032.6 |
| 20260508083003 | 42 | 322 | 2.0 | 4.0 | 0.00 | 0.04 | 0.00 | 55 | 1032.6 |
| 20260508082503 | 42 | 326 | 2.0 | 5.0 | 0.00 | 0.04 | 0.00 | 55 | 1032.6 |
| 20260508082221 | 42 | 324 | 3.0 | 8.0 | 0.00 | 0.04 | 0.00 | 55 | 1032.7 |
| 20260508081504 | 42 | 325 | 3.0 | 8.0 | 0.00 | 0.04 | 0.00 | 55 | 1032.7 |
| 20260508081004 | 41 | 327 | 2.0 | 4.0 | 0.00 | 0.04 | 0.00 | 56 | 1032.7 |
| 20260508080503 | 42 | 332 | 1.0 | 4.0 | 0.00 | 0.04 | 0.00 | 54 | 1032.7 |
| 20260508080218 | 42 | 338 | 1.0 | 4.0 | 0.00 | 0.04 | 0.00 | 54 | 1032.7 |
| 20260508075503 | 44 | 336 | 1.0 | 5.0 | 0.00 | 0.04 | 0.00 | 50 | 1032.9 |
| 20260508075003 | 44 | 325 | 1.0 | 5.0 | 0.00 | 0.04 | 0.00 | 50 | 1032.9 |
| 20260508074722 | 44 | 318 | 2.0 | 8.0 | 0.00 | 0.04 | 0.00 | 49 | 1032.9 |
| 20260508074003 | 44 | 317 | 4.0 | 10.0 | 0.00 | 0.04 | 0.00 | 50 | 1032.9 |
| 20260508073503 | 44 | 319 | 4.0 | 9.0 | 0.00 | 0.04 | 0.00 | 50 | 1033.0 |
| 20260508073003 | 43 | 315 | 4.0 | 8.0 | 0.00 | 0.04 | 0.00 | 52 | 1033.1 |
| 20260508072503 | 42 | 313 | 2.0 | 8.0 | 0.00 | 0.04 | 0.00 | 52 | 1033.1 |
| 20260508072221 | 42 | 318 | 2.0 | 8.0 | 0.00 | 0.04 | 0.00 | 52 | 1033.2 |
| 20260508071503 | 43 | 324 | 2.0 | 5.0 | 0.00 | 0.04 | 0.00 | 52 | 1033.3 |
| 20260508071217 | 44 | 325 | 2.0 | 5.0 | 0.00 | 0.04 | 0.00 | 50 | 1033.3 |
| 20260508070720 | 45 | 318 | 3.0 | 8.0 | 0.00 | 0.04 | 0.00 | 49 | 1033.3 |
| 20260508070004 | 45 | 315 | 4.0 | 8.0 | 0.00 | 0.04 | 0.00 | 48 | 1033.2 |
| 20260508065503 | 45 | 311 | 4.0 | 10.0 | 0.00 | 0.04 | 0.00 | 47 | 1033.2 |
| 20260508065004 | 45 | 311 | 4.0 | 10.0 | 0.00 | 0.04 | 0.00 | 47 | 1033.2 |
| 20260508064503 | 45 | 317 | 4.0 | 8.0 | 0.00 | 0.04 | 0.00 | 48 | 1033.2 |
| 20260508064220 | 45 | 316 | 3.0 | 9.0 | 0.00 | 0.04 | 0.00 | 48 | 1033.3 |
| 20260508063503 | 45 | 317 | 3.0 | 10.0 | 0.00 | 0.04 | 0.00 | 48 | 1033.3 |
| 20260508063003 | 44 | 316 | 3.0 | 10.0 | 0.00 | 0.04 | 0.00 | 49 | 1033.1 |
| 20260508062503 | 44 | 311 | 2.0 | 7.0 | 0.00 | 0.04 | 0.00 | 49 | 1033.2 |
| 20260508062003 | 44 | 318 | 2.0 | 6.0 | 0.00 | 0.04 | 0.00 | 51 | 1033.1 |
| 20260508061720 | 44 | 318 | 3.0 | 8.0 | 0.00 | 0.04 | 0.00 | 50 | 1033.1 |
| 20260508061218 | 44 | 307 | 3.0 | 8.0 | 0.00 | 0.04 | 0.00 | 51 | 1033.1 |
| 20260508060503 | 42 | 312 | 2.0 | 4.0 | 0.00 | 0.04 | 0.00 | 54 | 1033.2 |
| 20260508060003 | 41 | 321 | 1.0 | 4.0 | 0.00 | 0.04 | 0.00 | 56 | 1033.3 |
| 20260508055503 | 42 | 297 | 1.0 | 4.0 | 0.00 | 0.04 | 0.04 | 55 | 1033.4 |
| 20260508055220 | 42 | 291 | 1.0 | 3.0 | 0.00 | 0.04 | 0.04 | 54 | 1033.4 |
| 20260508054503 | 43 | 356 | 2.0 | 5.0 | 0.00 | 0.04 | 0.04 | 50 | 1033.3 |
| 20260508054003 | 43 | 356 | 2.0 | 5.0 | 0.00 | 0.04 | 0.04 | 51 | 1033.4 |
| 20260508053503 | 44 | 328 | 1.0 | 4.0 | 0.00 | 0.04 | 0.04 | 51 | 1033.3 |
| 20260508053003 | 44 | 327 | 1.0 | 4.0 | 0.00 | 0.04 | 0.04 | 49 | 1033.3 |
| 20260508052503 | 45 | 346 | 1.0 | 4.0 | 0.00 | 0.04 | 0.04 | 49 | 1033.3 |
| 20260508052003 | 45 | 85 | 1.0 | 4.0 | 0.00 | 0.04 | 0.04 | 47 | 1033.0 |
| 20260508051503 | 45 | 77 | 1.0 | 4.0 | 0.00 | 0.04 | 0.04 | 46 | 1032.9 |
| 20260508051003 | 46 | 11 | 2.0 | 8.0 | 0.00 | 0.04 | 0.04 | 46 | 1032.9 |
| 20260508050717 | 46 | 330 | 2.0 | 8.0 | 0.00 | 0.04 | 0.04 | 47 | 1032.9 |
| 20260508050003 | 46 | 323 | 4.0 | 8.0 | 0.00 | 0.04 | 0.04 | 47 | 1033.1 |
| 20260508045503 | 46 | 326 | 5.0 | 10.0 | 0.00 | 0.04 | 0.04 | 47 | 1033.2 |
| 20260508045003 | 45 | 323 | 4.0 | 10.0 | 0.00 | 0.04 | 0.04 | 47 | 1033.2 |
| 20260508044719 | 44 | 325 | 3.0 | 9.0 | 0.00 | 0.04 | 0.04 | 49 | 1033.2 |
| 20260508044221 | 43 | 344 | 2.0 | 5.0 | 0.00 | 0.04 | 0.04 | 51 | 1033.2 |
| 20260508043503 | 42 | 35 | 1.0 | 5.0 | 0.00 | 0.04 | 0.04 | 52 | 1033.3 |
| 20260508043003 | 42 | 39 | 1.0 | 4.0 | 0.00 | 0.04 | 0.04 | 52 | 1033.4 |
| 20260508042503 | 42 | 355 | 1.0 | 4.0 | 0.00 | 0.04 | 0.04 | 54 | 1033.3 |
| 20260508042003 | 42 | 4 | 1.0 | 4.0 | 0.00 | 0.04 | 0.04 | 56 | 1033.5 |
| 20260508041504 | 42 | 9 | 1.0 | 3.0 | 0.00 | 0.04 | 0.04 | 55 | 1033.5 |
| 20260508041219 | 42 | 5 | 1.0 | 3.0 | 0.00 | 0.04 | 0.04 | 53 | 1033.4 |
| 20260508040503 | 44 | 332 | 2.0 | 8.0 | 0.00 | 0.04 | 0.04 | 54 | 1033.5 |
| 20260508040003 | 45 | 324 | 2.0 | 8.0 | 0.00 | 0.04 | 0.04 | 51 | 1033.4 |
| 20260508035503 | 45 | 336 | 1.0 | 8.0 | 0.00 | 0.04 | 0.04 | 47 | 1033.4 |
| 20260508035003 | 45 | 9 | 2.0 | 4.0 | 0.00 | 0.04 | 0.04 | 48 | 1033.4 |
| 20260508034503 | 46 | 69 | 2.0 | 6.0 | 0.00 | 0.04 | 0.04 | 48 | 1033.4 |
| 20260508034003 | 46 | 110 | 1.0 | 6.0 | 0.00 | 0.04 | 0.04 | 45 | 1033.3 |
| 20260508033503 | 47 | 218 | 1.0 | 4.0 | 0.00 | 0.04 | 0.04 | 45 | 1033.3 |
| 20260508033218 | 47 | 244 | 1.0 | 4.0 | 0.00 | 0.04 | 0.04 | 45 | 1033.3 |
| 20260508032503 | 48 | 287 | 3.0 | 9.0 | 0.00 | 0.04 | 0.04 | 43 | 1033.2 |
| 20260508032003 | 48 | 307 | 3.0 | 13.0 | 0.00 | 0.04 | 0.04 | 43 | 1033.1 |
| 20260508031503 | 48 | 314 | 4.0 | 13.0 | 0.00 | 0.04 | 0.04 | 43 | 1033.1 |
| 20260508031003 | 48 | 320 | 4.0 | 12.0 | 0.00 | 0.04 | 0.04 | 43 | 1033.0 |
| 20260508030503 | 47 | 12 | 3.0 | 10.0 | 0.00 | 0.04 | 0.04 | 43 | 1032.9 |
| 20260508030221 | 47 | 67 | 2.0 | 10.0 | 0.00 | 0.04 | 0.04 | 44 | 1032.9 |
| 20260508025503 | 47 | 273 | 1.0 | 6.0 | 0.00 | 0.04 | 0.04 | 44 | 1032.7 |
| 20260508025003 | 48 | 265 | 1.0 | 3.0 | 0.00 | 0.04 | 0.04 | 43 | 1032.6 |
| 20260508024503 | 48 | 89 | 1.0 | 5.0 | 0.00 | 0.04 | 0.04 | 43 | 1032.5 |
| 20260508024218 | 48 | 77 | 1.0 | 5.0 | 0.00 | 0.04 | 0.04 | 43 | 1032.5 |
| 20260508023503 | 48 | 76 | 1.0 | 3.0 | 0.00 | 0.04 | 0.04 | 42 | 1032.4 |
| 20260508023003 | 48 | 293 | 1.0 | 3.0 | 0.00 | 0.04 | 0.04 | 41 | 1032.5 |
| 20260508022503 | 49 | 304 | 2.0 | 8.0 | 0.00 | 0.04 | 0.04 | 40 | 1032.4 |
| 20260508022003 | 49 | 318 | 3.0 | 9.0 | 0.00 | 0.04 | 0.04 | 40 | 1032.3 |
| 20260508021503 | 49 | 317 | 3.0 | 9.0 | 0.00 | 0.04 | 0.04 | 40 | 1032.3 |
| 20260508021003 | 49 | 321 | 3.0 | 9.0 | 0.00 | 0.04 | 0.04 | 40 | 1032.3 |
| 20260508020503 | 49 | 335 | 3.0 | 9.0 | 0.00 | 0.04 | 0.04 | 40 | 1032.3 |
| 20260508020004 | 48 | 335 | 2.0 | 5.0 | 0.00 | 0.04 | 0.04 | 40 | 1032.3 |
| 20260508015503 | 48 | 331 | 1.0 | 4.0 | 0.00 | 0.04 | 0.04 | 43 | 1032.2 |
| 20260508015217 | 48 | 330 | 2.0 | 5.0 | 0.00 | 0.04 | 0.04 | 40 | 1032.1 |
| 20260508014720 | 48 | 303 | 2.0 | 7.0 | 0.00 | 0.04 | 0.04 | 42 | 1032.2 |
| 20260508014003 | 49 | 305 | 2.0 | 5.0 | 0.00 | 0.04 | 0.04 | 39 | 1032.2 |
| 20260508013503 | 50 | 298 | 2.0 | 7.0 | 0.00 | 0.04 | 0.04 | 40 | 1032.1 |
| 20260508013003 | 50 | 287 | 3.0 | 9.0 | 0.00 | 0.04 | 0.04 | 37 | 1032.0 |
| 20260508012503 | 51 | 295 | 4.0 | 9.0 | 0.00 | 0.04 | 0.04 | 35 | 1032.1 |
| 20260508012220 | 51 | 296 | 4.0 | 9.0 | 0.00 | 0.04 | 0.04 | 36 | 1032.1 |
| 20260508011718 | 51 | 306 | 4.0 | 12.0 | 0.00 | 0.04 | 0.04 | 35 | 1032.0 |
| 20260508011003 | 52 | 308 | 4.0 | 9.0 | 0.00 | 0.04 | 0.04 | 35 | 1032.0 |
| 20260508010503 | 52 | 309 | 5.0 | 13.0 | 0.00 | 0.04 | 0.04 | 34 | 1031.9 |
| 20260508010217 | 52 | 310 | 5.0 | 13.0 | 0.00 | 0.04 | 0.04 | 34 | 1031.9 |